User: anonymous
Location: Caltech
(34.1382°N, 118.1253°W)
Time: 03:20:22
(UTC-07:00)
Language:

Cosmos 1626 - Orbit

View from above orbital plane
View from above orbital plane
View from above satellite
View from above satellite

Ground track
Ground track

The orbit data is extracted from the following two-line orbital elements,

1 15494U 85009A   14292.74286910  .00007271  00000-0  37608-3 0  6924
2 15494 082.4812 138.3219 0002391 169.7403 317.4425 15.16101023621186
Epoch (UTC): 19 October 2014 17:49:43
Eccentricity: 0.0002391
inclination: 82.4812°
perigee height: 516 km
apogee height: 519 km
right ascension of ascending node: 138.3219°
argument of perigee: 169.7403°
revolutions per day: 15.16101023
mean anomaly at epoch: 317.4425°
orbit number at epoch: 62118

The dashed part of the orbit path shows where the satellite is in the earth's shadow,  

DLR